[[{"header":{"parameterUnit":"m.s-1","parameterCategory":2,"la1":30.2991,"la2":30.254,"lo1":-89.0895,"lo2":-89.0444,"dy":0.0017,"dx":0.0017,"nx":28,"ny":28,"refTime":"2023-10-14T03:00:00:Z","depth":"0","parameterNumber":2,"parameterNumberName":"U-component_of_CURRENTS"},"data":[0,0,0,0,0,0,0,0,0,0,0,0,0,0,0,0,0,0,0,0,0,0,0,0,0,0,0,0,0,0,0,0,0,0,0,0,0,0,0,0,0,0,0,0,0,0,0,0,0,0,0,0,0,0,0,0,0,0,0.3847,0.3846,0,0.3732,0.3731,0.373,0.3741,0.3743,0.3744,0.3746,0.3737,0.3735,0.3733,0,0,0,0,0,0,0,0,0,0,0,0,0,0.4136,0.413,0.3847,0.3846,0.3844,0.3733,0.3731,0.3729,0.374,0.3743,0.3745,0.3747,0.3737,0.3735,0.3732,0,0,0,0,0,0,0,0,0,0,0,0,0,0.4014,0.4128,0.3847,0.3837,0.3835,0.3733,0.3731,0.3729,0.374,0.3743,0.3746,0.3748,0.3738,0.3735,0.3732,0.3658,0,0,0.3723,0.3722,0,0,0,0,0,0,0,0,0.4021,0.4003,0.384,0.3838,0.3835,0.3754,0.3829,0.3711,0.3739,0.3775,0.3746,0.375,0.3751,0.3747,0.3716,0.3658,0.3657,0.3723,0.3721,0.372,0.3719,0,0,0,0,0,0,0,0.4029,0.4008,0.3801,0.3838,0.3835,0.3859,0.3844,0.3807,0.375,0.3772,0.3773,0.3761,0.3751,0.3719,0.3717,0.3657,0.3723,0.372,0.3718,0.3717,0.3677,0.3678,0,0,0,0,0,0,0.4037,0.4015,0.3805,0.3798,0.3938,0.3851,0.3835,0.3777,0.3748,0.3746,0.3758,0.3762,0.3723,0.372,0.3717,0.3763,0.372,0.3717,0.3715,0.3676,0.3677,0.3678,0,0,0,0,0,0,0.4043,0.4017,0.3809,0.3909,0.3884,0.3843,0.3778,0.3773,0.3764,0.3737,0.3737,0.3759,0.3725,0.3721,0.3707,0.3758,0.3716,0.3713,0.3675,0.3677,0.3677,0.3769,0,0,0,0,0,0,0.4051,0.4019,0.3988,0.3906,0.3878,0.3769,0.3776,0.3769,0.3751,0.3755,0.3736,0.3736,0.3727,0.3711,0.3704,0.3753,0.3711,0.3674,0.3676,0.3677,0.3765,0.3773,0.3779,0,0,0,0,0,0.4061,0.3981,0.3986,0.3962,0.3832,0.3769,0.3756,0.3739,0.3749,0.3742,0.3734,0.3738,0.3716,0.3708,0.3699,0.3749,0.3674,0.3675,0.3677,0.3761,0.3771,0.3779,0,0,0,0,0,0,0.4083,0.3972,0.3977,0.3868,0.3844,0.3772,0.3743,0.3742,0.3722,0.3733,0.3721,0.372,0.3745,0.3712,0.3703,0.3741,0.3705,0.3705,0.3772,0.3781,0.3788,0.3798,0.3708,0,0,0,0,0,0.4075,0.4006,0.393,0.3867,0.3835,0.3799,0.3773,0.377,0.3737,0.3731,0.3723,0.3719,0.3734,0.373,0.3728,0.3713,0.3711,0.3747,0.3754,0.3761,0.3762,0.3779,0.3789,0.3683,0.3683,0.3683,0,0,0.4079,0.4008,0.3975,0.3873,0.3839,0.3806,0.3789,0.3749,0.3763,0.3731,0.3737,0.3745,0.3738,0.3756,0.3763,0.3737,0.3796,0.3763,0.3769,0.3766,0.3782,0.3793,0.3802,0.3684,0.3684,0.3684,0,0,0.4029,0.3974,0.3894,0.3878,0.3827,0.3813,0.381,0.3754,0.3765,0.3761,0.3774,0.3801,0.3781,0.3805,0.3813,0.3845,0.3845,0.3854,0.3887,0.3905,0.3915,0.3922,0.3967,0.3978,0.3846,0.3846,0.3846,0,0.4032,0.3933,0.3877,0.3819,0.3824,0.3823,0.3795,0.3794,0.3765,0.3783,0.3783,0.3814,0.3814,0.3864,0.3889,0.3869,0.3877,0.386,0.3917,0.3925,0.3931,0.3974,0.3985,0.3851,0.385,0.385,0.3849,0,0.3946,0.3891,0.3848,0.3793,0.3794,0.3773,0.3779,0.3795,0.3822,0.3835,0.3889,0.3889,0.3914,0.3933,0.392,0.398,0.3973,0.3939,0.39,0.3948,0.399,0.4,0.3857,0.3856,0.3854,0.3853,0,0,0.3859,0.3795,0.3781,0.3791,0.3792,0.378,0.3819,0.3843,0.3882,0.3901,0.3951,0.3995,0.401,0.4018,0.4024,0.4035,0.4109,0.4005,0.4003,0.4059,0.417,0.4097,0.4101,0.408,0.4081,0.4082,0.4193,0,0.3811,0.3723,0.3718,0.3724,0.3697,0.3762,0.3807,0.3858,0.3905,0.3953,0.4,0.4048,0.404,0.4068,0.4085,0.4099,0.4133,0.4083,0.4104,0.4105,0.4044,0.4109,0.3928,0.4003,0.4202,0.4204,0.4205,0,0.3701,0.3683,0.3648,0.3709,0.3703,0.3734,0.3838,0.388,0.3966,0.4003,0.4067,0.4101,0.4165,0.4135,0.42,0.4166,0.4181,0.4185,0.4189,0.409,0.405,0.3979,0.4014,0.3935,0.422,0.4219,0.4217,0,0.3649,0.3628,0.3622,0.3643,0.3704,0.374,0.3797,0.3889,0.3939,0.404,0.4088,0.4162,0.4201,0.4233,0.4267,0.4234,0.4325,0.4278,0.424,0.4236,0.4069,0.4047,0.4031,0.4328,0.4328,0.4327,0.4327,0,0.3569,0.3564,0.3604,0.3606,0.3662,0.3722,0.3792,0.3859,0.3956,0.4017,0.4111,0.4167,0.4219,0.4281,0.4301,0.4314,0.4363,0.4265,0.4257,0.4098,0.4078,0.3988,0.3939,0.4332,0.4331,0.433,0.4329,0,0.3482,0.3485,0.3509,0.3592,0.3618,0.3669,0.3777,0.3821,0.3932,0.4015,0.4055,0.4174,0.4263,0.4335,0.4391,0.4344,0.4247,0.4369,0.4196,0.4163,0.3997,0.3959,0.3767,0.3666,0.4326,0.4325,0.4324,0,0.3426,0.3423,0.3503,0.3522,0.3554,0.3631,0.3671,0.3789,0.3838,0.4011,0.4037,0.4174,0.4238,0.4328,0.43,0.4343,0.4238,0.417,0.4057,0.3978,0.3932,0.3774,0.3692,0.3898,0.3894,0.389,0.3887,0,0.3393,0.3422,0.3441,0.3462,0.3498,0.3551,0.3617,0.3659,0.3798,0.3876,0.3973,0.4047,0.4151,0.4092,0.415,0.4143,0.3945,0.4094,0.4044,0.3622,0.3415,0.3316,0.3871,0.3855,0.3858,0.3861,0.3862,0.3864,0.3389,0.3388,0.3392,0.3396,0.3428,0.344,0.3441,0.3521,0.3584,0.366,0.3813,0.3852,0.3888,0.3931,0.3905,0.3743,0.3738,0.3612,0.3591,0.3454,0.3273,0.3774,0.3718,0.372,0.3722,0.3724,0.3726,0,0.3337,0.3306,0.3325,0.3296,0.3262,0.332,0.3363,0.3338,0.3351,0.3477,0.3533,0.3543,0.3499,0.3522,0.3412,0.3263,0.3099,0.3184,0.293,0.2891,0.3374,0.3274,0.3077,0.3077,0.3077,0.3077,0.3078,0.3078,0.3288,0.3232,0.3207,0.3108,0.3096,0.3013,0.3009,0.3008,0.3065,0.3052,0.3046,0.3099,0.319,0.3151,0.3008,0.2931,0.2725,0.2558,0.2605,0.2974,0.3013,0.3049,0.2946,0.2684,0.2683,0.1985,0.198,0.1976]},{"header":{"parameterUnit":"m.s-1","parameterCategory":2,"la1":30.2991,"la2":30.254,"lo1":-89.0895,"lo2":-89.0444,"dy":0.0017,"dx":0.0017,"nx":28,"ny":28,"refTime":"2023-10-14T03:00:00:Z","depth":"0","parameterNumber":3,"parameterNumberName":"V-component_of_CURRENTS"},"data":[0,0,0,0,0,0,0,0,0,0,0,0,0,0,0,0,0,0,0,0,0,0,0,0,0,0,0,0,0,0,0,0,0,0,0,0,0,0,0,0,0,0,0,0,0,0,0,0,0,0,0,0,0,0,0,0,0,0,-0.0895,-0.0894,0,-0.0779,-0.0777,-0.0775,-0.0744,-0.0745,-0.0747,-0.0748,-0.0684,-0.0682,-0.0679,0,0,0,0,0,0,0,0,0,0,0,0,0,-0.0985,-0.0984,-0.0895,-0.0894,-0.0893,-0.0779,-0.0777,-0.0775,-0.0744,-0.0745,-0.0747,-0.0748,-0.0685,-0.0682,-0.0679,0,0,0,0,0,0,0,0,0,0,0,0,0,-0.0911,-0.0984,-0.0895,-0.0867,-0.0864,-0.0779,-0.0777,-0.0774,-0.0744,-0.0746,-0.0747,-0.0749,-0.0686,-0.0682,-0.0678,-0.0621,0,0,-0.0666,-0.0664,0,0,0,0,0,0,0,0,-0.0916,-0.0908,-0.0872,-0.0869,-0.0865,-0.0781,-0.0785,-0.0727,-0.0743,-0.0785,-0.0748,-0.0749,-0.0723,-0.0716,-0.0684,-0.0618,-0.0615,-0.0666,-0.0663,-0.0662,-0.066,0,0,0,0,0,0,0,-0.0921,-0.0912,-0.0845,-0.0871,-0.0867,-0.0824,-0.0816,-0.0773,-0.0744,-0.0781,-0.078,-0.0773,-0.0721,-0.0688,-0.0683,-0.0614,-0.0666,-0.0662,-0.066,-0.0658,-0.0512,-0.0511,0,0,0,0,0,0,-0.0947,-0.0917,-0.0849,-0.0842,-0.09,-0.0822,-0.0812,-0.0803,-0.0743,-0.0737,-0.0772,-0.0772,-0.0694,-0.0687,-0.068,-0.0629,-0.0662,-0.0658,-0.0656,-0.0514,-0.0512,-0.0511,0,0,0,0,0,0,-0.0949,-0.0942,-0.0853,-0.088,-0.0867,-0.082,-0.0809,-0.08,-0.0771,-0.0736,-0.073,-0.0754,-0.0695,-0.0686,-0.0644,-0.0626,-0.0656,-0.0652,-0.0516,-0.0513,-0.0511,-0.0514,0,0,0,0,0,0,-0.0952,-0.0943,-0.094,-0.0882,-0.0866,-0.0807,-0.0807,-0.0797,-0.0766,-0.0765,-0.0718,-0.0714,-0.0696,-0.065,-0.064,-0.0621,-0.0649,-0.0517,-0.0515,-0.0512,-0.0515,-0.0512,-0.0509,0,0,0,0,0,-0.0956,-0.0936,-0.0941,-0.0933,-0.0866,-0.0806,-0.0793,-0.0762,-0.0764,-0.0743,-0.0716,-0.0715,-0.0626,-0.0645,-0.0634,-0.0614,-0.0519,-0.0515,-0.0512,-0.0517,-0.0512,-0.0509,0,0,0,0,0,0,-0.0976,-0.093,-0.0934,-0.0904,-0.0867,-0.0803,-0.0767,-0.076,-0.0716,-0.0718,-0.0693,-0.0684,-0.0645,-0.0621,-0.0643,-0.0562,-0.0573,-0.0567,-0.058,-0.0576,-0.0573,-0.0541,-0.0646,0,0,0,0,0,-0.0981,-0.0967,-0.0914,-0.0903,-0.0864,-0.0818,-0.079,-0.0779,-0.0736,-0.0718,-0.0692,-0.0656,-0.0617,-0.0593,-0.056,-0.0506,-0.0484,-0.0485,-0.0482,-0.0479,-0.0444,-0.0411,-0.0402,-0.05,-0.05,-0.05,0,0,-0.0997,-0.0969,-0.0965,-0.0908,-0.0861,-0.0793,-0.0802,-0.0758,-0.0725,-0.0718,-0.066,-0.0648,-0.0602,-0.0552,-0.053,-0.0532,-0.0442,-0.0475,-0.0474,-0.0439,-0.0407,-0.0397,-0.0389,-0.0498,-0.0498,-0.0498,0,0,-0.0979,-0.0973,-0.0924,-0.0884,-0.0825,-0.079,-0.078,-0.0718,-0.0704,-0.0657,-0.0647,-0.0615,-0.0555,-0.0515,-0.0487,-0.0435,-0.0434,-0.0439,-0.0386,-0.0356,-0.0347,-0.034,-0.0317,-0.0307,-0.0429,-0.0429,-0.0429,0,-0.099,-0.0923,-0.0906,-0.0832,-0.0788,-0.0783,-0.0704,-0.0683,-0.0638,-0.0609,-0.0642,-0.0534,-0.0526,-0.043,-0.0429,-0.0426,-0.0416,-0.0413,-0.0353,-0.0344,-0.0337,-0.0315,-0.0304,-0.0429,-0.0429,-0.0429,-0.0429,0,-0.0923,-0.0859,-0.0817,-0.0728,-0.0689,-0.0629,-0.0592,-0.0567,-0.0564,-0.0542,-0.0477,-0.0462,-0.0388,-0.0398,-0.0401,-0.033,-0.0345,-0.0365,-0.0369,-0.0327,-0.0307,-0.0296,-0.0429,-0.0429,-0.0429,-0.0429,0,0,-0.0942,-0.0793,-0.0772,-0.0694,-0.0626,-0.0571,-0.0524,-0.0445,-0.0388,-0.039,-0.03,-0.0278,-0.0283,-0.0249,-0.0256,-0.024,-0.0212,-0.0284,-0.0283,-0.027,-0.0151,-0.0168,-0.0158,-0.0236,-0.0234,-0.0232,-0.0167,0,-0.0871,-0.0693,-0.0667,-0.0524,-0.0407,-0.0407,-0.0351,-0.0313,-0.0292,-0.0219,-0.0215,-0.0145,-0.0222,-0.0189,-0.0187,-0.0199,-0.0179,-0.0227,-0.0182,-0.018,-0.0208,-0.0143,-0.013,-0.0071,-0.0156,-0.0154,-0.0153,0,-0.0766,-0.0668,-0.0491,-0.0356,-0.031,-0.026,-0.0154,-0.0111,-0.0047,-0.0035,0.0012,0.001,0.0051,-0.0031,-0.002,-0.0055,-0.0091,-0.0117,-0.0115,-0.0111,-0.0174,-0.012,-0.0047,-0.0168,-0.0135,-0.0137,-0.0138,0,-0.0681,-0.0524,-0.0374,-0.0332,-0.0205,-0.0155,-0.0103,-0.004,0.0026,0.0096,0.0155,0.0174,0.021,0.0165,0.0086,0.0035,0.0093,0.002,-0.0015,-0.0018,0.002,0.0017,-0.0018,0.0053,0.0053,0.0052,0.0052,0,-0.0547,-0.0424,-0.0324,-0.0235,-0.0102,-0.0063,0.0071,0.011,0.0193,0.0314,0.0265,0.037,0.0255,0.0262,0.0165,0.0121,0.0159,0.0029,0.0014,0.0016,0.0013,-0.0071,-0.0168,0.0055,0.0054,0.0054,0.0053,0,-0.0402,-0.0331,-0.0167,-0.0061,-0.0028,0.0072,0.0189,0.0285,0.0328,0.0487,0.0518,0.0531,0.0535,0.043,0.0372,0.0243,0.0126,0.0171,0.0174,0.0157,-0.003,-0.0128,-0.0135,-0.02,0.0136,0.0136,0.0136,0,-0.0285,-0.0184,-0.0047,0.0036,0.0095,0.0221,0.0312,0.0364,0.0467,0.0613,0.071,0.0744,0.0813,0.0702,0.0498,0.0357,0.0203,0.023,0.0134,-0.0003,-0.0123,-0.0184,-0.0244,0.0176,0.0177,0.0177,0.0178,0,-0.0102,-0.0067,0.0059,0.0212,0.0317,0.0436,0.0565,0.0656,0.0744,0.0876,0.1044,0.111,0.0998,0.0871,0.0627,0.0487,0.0126,0.0232,0.0106,-0.0065,-0.0143,-0.0225,0.0079,0.0181,0.0181,0.0181,0.018,0.018,0.003,0.0125,0.0265,0.0411,0.052,0.0648,0.0763,0.0896,0.1074,0.1286,0.1318,0.1477,0.1208,0.0889,0.0653,0.0212,0.0186,0.0062,-0.0034,-0.0073,-0.0165,0.0142,0.0206,0.0205,0.0205,0.0205,0.0205,0,0.0213,0.0306,0.0451,0.0618,0.0744,0.076,0.0933,0.1051,0.1274,0.1502,0.1669,0.1697,0.1346,0.094,0.0336,0.0009,-0.0129,-0.0174,-0.0259,-0.0303,0.0003,-0.0027,-0.0028,-0.0028,-0.0028,-0.0028,-0.0028,-0.0028,0.0343,0.0509,0.0559,0.0784,0.0879,0.1034,0.1128,0.1308,0.1492,0.1808,0.198,0.2072,0.1788,0.0685,-0.0073,-0.0274,-0.0491,-0.0525,-0.0645,-0.0457,-0.0442,-0.0429,-0.0477,-0.0574,-0.0575,-0.0894,-0.0898,-0.0901]}],[{"header":{"parameterUnit":"m.s-1","parameterCategory":2,"la1":30.2991,"la2":30.254,"lo1":-89.0895,"lo2":-89.0444,"dy":0.0017,"dx":0.0017,"nx":28,"ny":28,"refTime":"2023-10-14T03:00:00:Z","depth":"2","parameterNumber":2,"parameterNumberName":"U-component_of_CURRENTS"},"data":[0,0,0,0,0,0,0,0,0,0,0,0,0,0,0,0,0,0,0,0,0,0,0,0,0,0,0,0,0,0,0,0,0,0,0,0,0,0,0,0,0,0,0,0,0,0,0,0,0,0,0,0,0,0,0,0,0,0,0.23,0.23,0,0.2321,0.2321,0.2321,0.2335,0.2336,0.2336,0.2337,0.2397,0.2398,0.2399,0,0,0,0,0,0,0,0,0,0,0,0,0,0.2218,0.2219,0.23,0.23,0.2301,0.2321,0.2321,0.2321,0.2335,0.2336,0.2336,0.2337,0.2397,0.2398,0.2399,0,0,0,0,0,0,0,0,0,0,0,0,0,0.2243,0.222,0.2299,0.2314,0.2316,0.2322,0.2321,0.2321,0.2335,0.2336,0.2337,0.2337,0.2396,0.2398,0.2399,0.2392,0,0,0.2404,0.2405,0,0,0,0,0,0,0,0,0.2242,0.2245,0.2311,0.2314,0.2316,0.2331,0.2315,0.2348,0.2335,0.2322,0.2337,0.2338,0.2382,0.2384,0.2378,0.2395,0.2397,0.2404,0.2405,0.2406,0.2406,0,0,0,0,0,0,0,0.224,0.2244,0.2303,0.2312,0.2315,0.2303,0.2307,0.232,0.2343,0.2323,0.2326,0.2336,0.2382,0.2377,0.238,0.2398,0.2404,0.2406,0.2407,0.2407,0.2475,0.2475,0,0,0,0,0,0,0.225,0.2243,0.2302,0.2304,0.2286,0.2304,0.2309,0.2321,0.2342,0.2348,0.2336,0.2337,0.2373,0.2378,0.2382,0.2444,0.2406,0.2408,0.2408,0.2474,0.2475,0.2476,0,0,0,0,0,0,0.2248,0.2255,0.2301,0.2278,0.2284,0.2306,0.2319,0.2321,0.2341,0.2352,0.2357,0.2357,0.2374,0.238,0.2418,0.2444,0.2408,0.241,0.2473,0.2474,0.2475,0.2524,0,0,0,0,0,0,0.2246,0.2254,0.2267,0.2279,0.2286,0.2326,0.2318,0.2321,0.2348,0.235,0.2372,0.2377,0.2375,0.2415,0.2419,0.2446,0.2411,0.2472,0.2473,0.2475,0.2521,0.2527,0.2531,0,0,0,0,0,0.2243,0.2258,0.2267,0.2275,0.2302,0.2327,0.2329,0.2343,0.2348,0.2362,0.2378,0.2377,0.2428,0.2418,0.2422,0.245,0.2471,0.2473,0.2475,0.2519,0.2526,0.2531,0,0,0,0,0,0,0.2221,0.2262,0.2272,0.2297,0.2322,0.2332,0.2348,0.2357,0.2377,0.2384,0.239,0.2397,0.2439,0.2436,0.2424,0.2472,0.2448,0.2451,0.248,0.2487,0.2492,0.2559,0.2412,0,0,0,0,0,0.2225,0.2259,0.2283,0.2309,0.2321,0.2338,0.2351,0.2363,0.2382,0.2392,0.2403,0.2419,0.2443,0.246,0.2473,0.2502,0.252,0.252,0.2526,0.253,0.2587,0.2601,0.2613,0.2482,0.2482,0.2482,0,0,0.2224,0.2254,0.2272,0.231,0.2326,0.2345,0.2347,0.2377,0.24,0.2396,0.2428,0.244,0.2455,0.2487,0.2505,0.2493,0.2574,0.2532,0.2536,0.2593,0.2604,0.2617,0.2629,0.2483,0.2483,0.2483,0,0,0.2235,0.2267,0.2291,0.2319,0.2358,0.2366,0.2383,0.2402,0.2422,0.246,0.2458,0.2504,0.2522,0.2546,0.2561,0.2606,0.26,0.2589,0.2674,0.2685,0.2697,0.2707,0.2739,0.2752,0.2591,0.2591,0.2591,0,0.2246,0.2269,0.2301,0.233,0.235,0.238,0.2396,0.2424,0.2453,0.2484,0.2483,0.2558,0.2563,0.2631,0.265,0.2624,0.2629,0.2647,0.2694,0.2704,0.2715,0.2745,0.2759,0.2594,0.2594,0.2593,0.2593,0,0.224,0.229,0.231,0.2357,0.2374,0.2408,0.2439,0.2475,0.2505,0.2537,0.262,0.2645,0.2699,0.2695,0.2698,0.277,0.275,0.2695,0.2682,0.2731,0.2759,0.2773,0.2598,0.2597,0.2596,0.2595,0,0,0.2212,0.2296,0.2309,0.235,0.2396,0.2416,0.2464,0.2521,0.258,0.2636,0.2711,0.2783,0.2818,0.2841,0.284,0.2874,0.294,0.2829,0.2828,0.2871,0.2982,0.2901,0.2908,0.2876,0.2879,0.2881,0.2971,0,0.2213,0.2278,0.2301,0.2367,0.2403,0.2451,0.2495,0.2556,0.2617,0.2696,0.2777,0.2848,0.2862,0.2897,0.294,0.2937,0.2981,0.2924,0.2924,0.2926,0.2854,0.2923,0.2694,0.2748,0.2984,0.2986,0.2988,0,0.2199,0.2247,0.2301,0.2407,0.2421,0.2458,0.2546,0.2592,0.2711,0.2765,0.2875,0.2926,0.3036,0.3007,0.3103,0.3059,0.3054,0.3053,0.3053,0.2986,0.2871,0.2738,0.2764,0.3011,0.3009,0.3007,0.3006,0,0.2161,0.2264,0.231,0.234,0.2434,0.2476,0.2525,0.2625,0.2683,0.282,0.2891,0.301,0.3083,0.3116,0.3156,0.3122,0.3232,0.3155,0.3094,0.3088,0.2906,0.2879,0.3226,0.3226,0.3226,0.3225,0.3225,0,0.2165,0.2214,0.2316,0.2342,0.2416,0.2472,0.2553,0.2636,0.2742,0.2817,0.2934,0.3027,0.3113,0.3184,0.319,0.3209,0.3256,0.3162,0.3118,0.2913,0.2887,0.312,0.3107,0.3229,0.3228,0.3227,0.3227,0,0.2136,0.22,0.2265,0.2365,0.2409,0.2456,0.2568,0.2626,0.2742,0.2843,0.2893,0.3058,0.3154,0.3227,0.3281,0.3247,0.3258,0.324,0.3018,0.2946,0.3102,0.3091,0.3195,0.3193,0.3191,0.319,0.3189,0,0.212,0.2169,0.227,0.2308,0.2362,0.2445,0.2499,0.2616,0.2668,0.2854,0.2896,0.3054,0.3122,0.3214,0.3193,0.3201,0.325,0.2975,0.2873,0.316,0.3106,0.3096,0.3087,0.265,0.2645,0.2641,0.2637,0,0.2101,0.2149,0.2185,0.2276,0.2341,0.2402,0.2491,0.2531,0.265,0.2724,0.2831,0.2906,0.3032,0.2953,0.2986,0.295,0.2955,0.2883,0.324,0.2687,0.2651,0.2596,0.2604,0.2598,0.2602,0.2604,0.2607,0.2608,0.2084,0.21,0.2166,0.2231,0.2296,0.2341,0.2336,0.2412,0.2457,0.2513,0.2661,0.2676,0.2746,0.2681,0.2608,0.2566,0.2763,0.2628,0.264,0.2657,0.2571,0.2533,0.2444,0.2447,0.245,0.2452,0.2454,0,0.2059,0.208,0.2132,0.2169,0.2168,0.2262,0.2303,0.2244,0.2218,0.2314,0.2345,0.2193,0.2177,0.2252,0.2136,0.2136,0.2092,0.2041,0.1968,0.2011,0.2049,0.1928,0.1633,0.163,0.1627,0.1624,0,0,0.2051,0.2045,0.2048,0.2021,0.2053,0.2014,0.2005,0.1943,0.1954,0.1889,0.1877,0.2051,0.2181,0.1865,0.1842,0.1717,0.1835,0.1645,0.2314,0.2271,0.2304,0.2412,0.2279,0,0,0,0,0]},{"header":{"parameterUnit":"m.s-1","parameterCategory":2,"la1":30.2991,"la2":30.254,"lo1":-89.0895,"lo2":-89.0444,"dy":0.0017,"dx":0.0017,"nx":28,"ny":28,"refTime":"2023-10-14T03:00:00:Z","depth":"2","parameterNumber":3,"parameterNumberName":"V-component_of_CURRENTS"},"data":[0,0,0,0,0,0,0,0,0,0,0,0,0,0,0,0,0,0,0,0,0,0,0,0,0,0,0,0,0,0,0,0,0,0,0,0,0,0,0,0,0,0,0,0,0,0,0,0,0,0,0,0,0,0,0,0,0,0,0.0228,0.0227,0,0.0175,0.0175,0.0175,0.0156,0.0156,0.0155,0.0155,0.008,0.0078,0.0077,0,0,0,0,0,0,0,0,0,0,0,0,0,0.0425,0.0421,0.0228,0.0227,0.0226,0.0175,0.0175,0.0175,0.0156,0.0156,0.0155,0.0155,0.0081,0.0079,0.0077,0,0,0,0,0,0,0,0,0,0,0,0,0,0.0357,0.042,0.0228,0.0207,0.0204,0.0175,0.0175,0.0175,0.0156,0.0156,0.0155,0.0155,0.0081,0.0079,0.0076,0.0069,0,0,0.0068,0.0067,0,0,0,0,0,0,0,0,0.0361,0.035,0.0211,0.0208,0.0205,0.0167,0.0216,0.0136,0.0156,0.018,0.0155,0.0155,0.0104,0.01,0.0098,0.0065,0.0062,0.0068,0.0066,0.0065,0.0065,0,0,0,0,0,0,0,0.0365,0.0353,0.0212,0.021,0.0206,0.0237,0.0227,0.0202,0.0149,0.0178,0.0175,0.0161,0.0103,0.0101,0.0096,0.0061,0.0068,0.0066,0.0064,0.0063,0.0022,0.0022,0,0,0,0,0,0,0.0355,0.0357,0.0214,0.021,0.0278,0.0233,0.0222,0.0184,0.0149,0.0142,0.0161,0.016,0.0106,0.0099,0.0093,0.0096,0.0065,0.0063,0.0061,0.0021,0.0022,0.0022,0,0,0,0,0,0,0.0359,0.0342,0.0216,0.028,0.0266,0.0229,0.0188,0.0183,0.017,0.0136,0.013,0.0151,0.0105,0.0097,0.0071,0.0092,0.0062,0.0059,0.0021,0.0022,0.0022,0.0091,0,0,0,0,0,0,0.0365,0.0343,0.0318,0.0278,0.0261,0.0207,0.0187,0.0182,0.016,0.0158,0.0125,0.0119,0.0104,0.0075,0.0069,0.0088,0.0057,0.002,0.0021,0.0022,0.0088,0.0094,0.0099,0,0,0,0,0,0.0372,0.0334,0.0316,0.03,0.0224,0.0207,0.0203,0.018,0.016,0.0166,0.0137,0.0119,0.0077,0.0073,0.0065,0.0084,0.002,0.0021,0.0022,0.0086,0.0093,0.0099,0,0,0,0,0,0,0.0416,0.0327,0.0307,0.0246,0.0233,0.0202,0.0192,0.0176,0.0158,0.0155,0.0118,0.011,0.0099,0.0076,0.0073,0.0075,0.0048,0.0048,0.0099,0.0106,0.0111,0.0106,0.0055,0,0,0,0,0,0.0409,0.0353,0.0303,0.0263,0.0248,0.022,0.0207,0.0202,0.0176,0.0168,0.0142,0.0117,0.0099,0.0088,0.0072,0.0065,0.0036,0.0073,0.0079,0.0083,0.0074,0.0054,0.0057,0.0026,0.0026,0.0026,0,0,0.0431,0.0361,0.0341,0.0269,0.0249,0.0252,0.0213,0.0202,0.0215,0.0161,0.0162,0.0132,0.01,0.0101,0.0095,0.0083,0.0079,0.0085,0.0089,0.0076,0.0055,0.0058,0.0061,0.0027,0.0026,0.0026,0,0,0.0436,0.0369,0.0331,0.032,0.028,0.0272,0.0266,0.0241,0.0236,0.0228,0.02,0.0171,0.0145,0.0131,0.0117,0.0135,0.0107,0.014,0.0165,0.0147,0.015,0.0151,0.013,0.0129,0.0145,0.0145,0.0145,0,0.0462,0.0399,0.0332,0.0307,0.0316,0.0281,0.0299,0.0289,0.0268,0.0264,0.0238,0.0192,0.0158,0.0155,0.016,0.0148,0.0133,0.0147,0.0155,0.0156,0.0156,0.0133,0.0132,0.0149,0.0148,0.0148,0.0148,0,0.0459,0.042,0.0404,0.0359,0.0367,0.0377,0.0365,0.0364,0.0343,0.0331,0.0313,0.0262,0.0233,0.0224,0.019,0.0189,0.0176,0.0165,0.0141,0.0164,0.0138,0.0135,0.0154,0.0152,0.0151,0.0151,0,0,0.048,0.0415,0.041,0.0418,0.0404,0.0417,0.0431,0.0437,0.0442,0.0408,0.0412,0.0355,0.0316,0.0295,0.0259,0.023,0.0214,0.02,0.0197,0.0182,0.0176,0.0159,0.0153,0.0212,0.0212,0.0212,0.0161,0,0.0503,0.0478,0.045,0.049,0.0495,0.0494,0.0515,0.0522,0.0504,0.0498,0.0437,0.0423,0.0351,0.0339,0.0298,0.0238,0.0207,0.0228,0.0151,0.0149,0.0134,0.0149,0.0166,0.0121,0.0157,0.0157,0.0156,0,0.0501,0.0488,0.0518,0.0546,0.0552,0.0584,0.0622,0.0643,0.0621,0.0601,0.0562,0.0516,0.0463,0.0403,0.0297,0.0318,0.0246,0.019,0.0188,0.0139,0.0124,0.0101,0.0113,0.015,0.0151,0.0151,0.0152,0,0.054,0.0536,0.0567,0.0583,0.061,0.0636,0.0666,0.0668,0.0696,0.0671,0.0676,0.0598,0.0572,0.0467,0.0332,0.0322,0.022,0.0197,0.0111,0.0109,0.0089,0.0086,0.0122,0.0122,0.0122,0.0122,0.0123,0,0.0562,0.0589,0.0583,0.0614,0.0673,0.0685,0.0754,0.075,0.077,0.0819,0.0736,0.0745,0.0586,0.0507,0.0373,0.0232,0.0251,0.011,0.0095,0.0115,0.0115,0.0108,0.0107,0.0121,0.0121,0.0121,0.0122,0,0.0594,0.0585,0.0631,0.0671,0.0686,0.0738,0.0822,0.0863,0.0868,0.0928,0.093,0.0861,0.0758,0.0593,0.0428,0.0298,0.016,0.0107,0.0136,0.0124,0.0049,0.0053,0.0005,0.0003,0.0003,0.0002,0.0001,0,0.0615,0.0621,0.0678,0.0714,0.0735,0.0809,0.086,0.0902,0.096,0.1006,0.1042,0.0964,0.0922,0.0666,0.0427,0.02,0.0166,0.006,0.0029,0.0047,0.0037,0.0042,0.0046,0.0032,0.0032,0.0032,0.0031,0,0.0659,0.0662,0.071,0.0772,0.0832,0.0913,0.0995,0.1059,0.1125,0.1173,0.1223,0.1197,0.0964,0.0737,0.0419,0.0256,0.0093,0.0047,0.0068,0.0061,0.0069,0.0061,0.0065,0.0029,0.0029,0.0029,0.003,0.003,0.0701,0.0728,0.0769,0.0841,0.0911,0.1007,0.1089,0.1184,0.1291,0.1371,0.1349,0.131,0.106,0.065,0.0378,0.008,0.0093,-0.002,-0.0018,-0.0015,-0.0002,0.0005,-0.0045,-0.0045,-0.0045,-0.0046,-0.0046,0,0.0731,0.0759,0.0829,0.0916,0.1003,0.1033,0.1168,0.1254,0.1386,0.1448,0.148,0.1235,0.0984,0.069,0.0262,0.0009,-0.0018,-0.0086,-0.0054,-0.0049,-0.0046,-0.0033,-0.0086,-0.0087,-0.0087,-0.0088,0,0,0.0741,0.0806,0.0838,0.0975,0.1041,0.1159,0.1242,0.1358,0.1439,0.1498,0.1475,0.1415,0.1078,0.0761,0.0417,0.0173,0.0114,0.011,0.0169,0.0252,0.0259,0.0018,0.0046,0,0,0,0,0]}],[{"header":{"parameterUnit":"m.s-1","parameterCategory":2,"la1":30.2991,"la2":30.254,"lo1":-89.0895,"lo2":-89.0444,"dy":0.0017,"dx":0.0017,"nx":28,"ny":28,"refTime":"2023-10-14T03:00:00:Z","depth":"4","parameterNumber":2,"parameterNumberName":"U-component_of_CURRENTS"},"data":[0,0,0,0,0,0,0,0,0,0,0,0,0,0,0,0,0,0,0,0,0,0,0,0,0,0,0,0,0,0,0,0,0,0,0,0,0,0,0,0,0,0,0,0,0,0,0,0,0,0,0,0,0,0,0,0,0,0,0.1048,0.1049,0,0.1149,0.115,0.1152,0.1228,0.1228,0.1229,0.123,0.1309,0.131,0.1312,0,0,0,0,0,0,0,0,0,0,0,0,0,0.0957,0.0958,0.1048,0.1049,0.105,0.1149,0.115,0.1152,0.1228,0.1228,0.1229,0.123,0.1308,0.131,0.1312,0,0,0,0,0,0,0,0,0,0,0,0,0,0.1022,0.0958,0.1048,0.1099,0.1104,0.1149,0.1151,0.1152,0.1228,0.1228,0.1229,0.123,0.1307,0.131,0.1312,0.1311,0,0,0.132,0.1321,0,0,0,0,0,0,0,0,0.1018,0.1026,0.109,0.1096,0.1102,0.1175,0.1147,0.1204,0.1227,0.1183,0.123,0.123,0.126,0.1267,0.1286,0.1314,0.1318,0.132,0.1321,0.1322,0.1323,0,0,0,0,0,0,0,0.1014,0.1022,0.109,0.1091,0.1098,0.1129,0.1139,0.1159,0.1216,0.1187,0.1192,0.12,0.1264,0.1284,0.1289,0.1319,0.132,0.1322,0.1323,0.1324,0.1436,0.1437,0,0,0,0,0,0,0.0995,0.1017,0.1087,0.1093,0.1059,0.1129,0.1141,0.1152,0.1217,0.1227,0.1199,0.1203,0.128,0.1286,0.1292,0.1364,0.1322,0.1324,0.1326,0.1434,0.1436,0.1438,0,0,0,0,0,0,0.0993,0.1001,0.1083,0.1056,0.1068,0.113,0.1142,0.1154,0.1206,0.1227,0.1237,0.1243,0.128,0.1288,0.1332,0.1365,0.1326,0.1328,0.1432,0.1435,0.1437,0.1463,0,0,0,0,0,0,0.099,0.0999,0.1018,0.1055,0.1069,0.113,0.1142,0.1155,0.1207,0.1214,0.1267,0.1273,0.1282,0.1328,0.1334,0.1367,0.133,0.143,0.1433,0.1436,0.146,0.1466,0.147,0,0,0,0,0,0.0986,0.1011,0.1019,0.1028,0.1088,0.1131,0.1142,0.1189,0.1209,0.1238,0.1268,0.1274,0.1351,0.1331,0.1337,0.1372,0.1429,0.1433,0.1436,0.1458,0.1464,0.147,0,0,0,0,0,0,0.0983,0.1021,0.1031,0.1066,0.1102,0.1143,0.118,0.1205,0.1254,0.1266,0.1286,0.1295,0.1352,0.1356,0.1334,0.1415,0.1394,0.1399,0.1408,0.1415,0.142,0.1416,0.1332,0,0,0,0,0,0.0986,0.1018,0.1049,0.1081,0.1099,0.1143,0.1172,0.12,0.1238,0.1264,0.1299,0.1334,0.1367,0.1385,0.1417,0.1451,0.1472,0.1481,0.1487,0.1491,0.1494,0.1565,0.1577,0.1449,0.1449,0.1449,0,0,0.099,0.1019,0.1035,0.1083,0.1116,0.1149,0.1165,0.1215,0.125,0.1261,0.1332,0.1359,0.1383,0.1429,0.1454,0.1438,0.1537,0.1495,0.1499,0.1499,0.157,0.1582,0.1594,0.1451,0.1451,0.1451,0,0,0.1009,0.1041,0.107,0.1102,0.1152,0.1176,0.1195,0.125,0.1288,0.134,0.1363,0.1407,0.1459,0.1482,0.1496,0.1548,0.1569,0.1567,0.1584,0.1653,0.1664,0.1674,0.1705,0.1718,0.1562,0.1562,0.1562,0,0.1003,0.1053,0.1087,0.1122,0.1153,0.119,0.1224,0.1263,0.1328,0.1361,0.1369,0.1464,0.1482,0.1534,0.1551,0.156,0.1594,0.1554,0.166,0.167,0.168,0.1709,0.1723,0.1564,0.1564,0.1563,0.1563,0,0.104,0.1084,0.1108,0.116,0.1198,0.1238,0.128,0.1332,0.1375,0.1409,0.1488,0.1516,0.1572,0.1585,0.158,0.1659,0.1658,0.1664,0.164,0.1694,0.1722,0.1735,0.1566,0.1565,0.1565,0.1565,0,0,0.101,0.1108,0.112,0.1154,0.1223,0.1253,0.1317,0.1379,0.143,0.1487,0.1556,0.1602,0.1628,0.1646,0.1659,0.1703,0.1789,0.1711,0.1714,0.1735,0.1929,0.1801,0.1803,0.1824,0.1827,0.1829,0.1916,0,0.1027,0.1095,0.1145,0.1212,0.1251,0.1306,0.1363,0.1423,0.1482,0.1557,0.1595,0.1668,0.1648,0.1688,0.1729,0.1789,0.1829,0.1763,0.188,0.1882,0.1757,0.1816,0.1838,0.1926,0.193,0.1932,0.1933,0,0.1052,0.1098,0.1164,0.1252,0.1273,0.1318,0.1417,0.1469,0.1566,0.1619,0.1686,0.1728,0.1802,0.1784,0.1897,0.1863,0.1898,0.1927,0.1932,0.1812,0.1779,0.1866,0.1958,0.1956,0.1954,0.1953,0.1951,0,0.1028,0.1115,0.1171,0.1199,0.1296,0.1345,0.1397,0.1493,0.1557,0.1671,0.1738,0.1816,0.1885,0.1947,0.1995,0.1972,0.2113,0.2091,0.2,0.199,0.2067,0.2056,0.2174,0.2174,0.2174,0.2174,0.2173,0,0.1028,0.1077,0.1169,0.1201,0.1273,0.134,0.1431,0.1499,0.1611,0.1684,0.1771,0.1838,0.1939,0.2018,0.2041,0.2057,0.2157,0.2011,0.2013,0.2073,0.2062,0.2076,0.2063,0.2177,0.2176,0.2175,0.2175,0,0.0999,0.1061,0.113,0.1232,0.1272,0.132,0.145,0.1502,0.1626,0.1729,0.1777,0.1901,0.1996,0.2068,0.2174,0.2112,0.2145,0.2126,0.2178,0.2181,0.196,0.1948,0.2028,0.2025,0.2022,0.2019,0.2017,0,0.0981,0.1023,0.114,0.118,0.1232,0.1321,0.1378,0.1502,0.1552,0.1742,0.177,0.1921,0.1986,0.2026,0.2103,0.2144,0.2118,0.2108,0.2024,0.1955,0.1951,0.1943,0.1936,0.2012,0.2011,0.2011,0.201,0,0.095,0.1008,0.1063,0.1148,0.1212,0.1277,0.1361,0.1396,0.153,0.1667,0.1738,0.18,0.1897,0.1949,0.2002,0.2021,0.2099,0.2076,0.2081,0.2002,0.1937,0.1933,0.1929,0.1999,0.2001,0.2002,0.2002,0,0.0921,0.0945,0.1027,0.1093,0.1168,0.1194,0.1256,0.1314,0.139,0.1577,0.1597,0.1751,0.1874,0.1887,0.1934,0.1948,0.1911,0.1832,0.1849,0.1862,0.1765,0.1655,0.1643,0,0,0,0,0,0.0882,0.0902,0.0961,0.1014,0.1086,0.1133,0.1223,0.1279,0.1408,0.1419,0.1507,0.1589,0.167,0.1739,0.1721,0.1857,0.1914,0.1826,0.1829,0.194,0.1953,0.1853,0,0,0,0,0,0,0.0851,0.09,0.0929,0.0941,0.0966,0.1025,0.1077,0.1167,0.1172,0.1318,0.1367,0.1491,0.1587,0.1675,0.1694,0.1717,0.1683,0.1922,0.1918,0.1933,0.1944,0.1954,0.1857,0,0,0,0,0]},{"header":{"parameterUnit":"m.s-1","parameterCategory":2,"la1":30.2991,"la2":30.254,"lo1":-89.0895,"lo2":-89.0444,"dy":0.0017,"dx":0.0017,"nx":28,"ny":28,"refTime":"2023-10-14T03:00:00:Z","depth":"4","parameterNumber":3,"parameterNumberName":"V-component_of_CURRENTS"},"data":[0,0,0,0,0,0,0,0,0,0,0,0,0,0,0,0,0,0,0,0,0,0,0,0,0,0,0,0,0,0,0,0,0,0,0,0,0,0,0,0,0,0,0,0,0,0,0,0,0,0,0,0,0,0,0,0,0,0,0.042,0.042,0,0.0362,0.0362,0.0361,0.0341,0.0341,0.0341,0.0341,0.0278,0.0277,0.0275,0,0,0,0,0,0,0,0,0,0,0,0,0,0.0461,0.046,0.042,0.042,0.0419,0.0362,0.0362,0.0361,0.0341,0.0341,0.0341,0.0341,0.0279,0.0277,0.0275,0,0,0,0,0,0,0,0,0,0,0,0,0,0.0429,0.046,0.0421,0.04,0.0398,0.0363,0.0362,0.0361,0.0341,0.0341,0.0341,0.0341,0.028,0.0277,0.0275,0.0258,0,0,0.0267,0.0266,0,0,0,0,0,0,0,0,0.0431,0.0428,0.0404,0.0402,0.0399,0.0357,0.0353,0.0326,0.0341,0.0365,0.0341,0.0341,0.0303,0.0299,0.0291,0.0255,0.0252,0.0267,0.0265,0.0264,0.0263,0,0,0,0,0,0,0,0.0433,0.043,0.04,0.0403,0.04,0.0376,0.0372,0.0347,0.0336,0.0363,0.0361,0.0351,0.0302,0.0293,0.0289,0.0251,0.0267,0.0264,0.0263,0.0262,0.0201,0.0201,0,0,0,0,0,0,0.0439,0.0432,0.0401,0.0398,0.0413,0.0375,0.0371,0.0372,0.0336,0.033,0.0351,0.035,0.0297,0.0292,0.0287,0.0279,0.0264,0.0262,0.026,0.0201,0.0201,0.0201,0,0,0,0,0,0,0.044,0.0437,0.0404,0.0411,0.0405,0.0374,0.0376,0.0371,0.0363,0.0327,0.0321,0.0348,0.0297,0.029,0.0268,0.0275,0.026,0.0258,0.0201,0.0201,0.0201,0.0254,0,0,0,0,0,0,0.0442,0.0438,0.044,0.0412,0.0405,0.0386,0.0375,0.037,0.0356,0.0355,0.0323,0.0317,0.0297,0.0272,0.0265,0.0272,0.0256,0.0201,0.0201,0.0201,0.0252,0.0255,0.0258,0,0,0,0,0,0.0444,0.0439,0.0441,0.0436,0.0409,0.0386,0.0381,0.036,0.0356,0.0354,0.0333,0.0318,0.0266,0.0269,0.0262,0.0268,0.0201,0.0201,0.0201,0.0251,0.0255,0.0258,0,0,0,0,0,0,0.0456,0.0436,0.0437,0.0427,0.0412,0.0382,0.0374,0.0362,0.0344,0.0348,0.0315,0.0307,0.029,0.0268,0.0273,0.0248,0.0231,0.023,0.0272,0.0275,0.0278,0.0297,0.0254,0,0,0,0,0,0.0461,0.046,0.0436,0.0434,0.0426,0.0404,0.0391,0.0383,0.0362,0.0354,0.033,0.0306,0.0283,0.0272,0.0247,0.0233,0.0204,0.0231,0.0234,0.0237,0.0246,0.02,0.02,0.02,0.02,0.02,0,0,0.047,0.0457,0.0458,0.0437,0.0426,0.042,0.0397,0.0388,0.0387,0.035,0.0341,0.0315,0.028,0.0266,0.0257,0.025,0.0222,0.0237,0.024,0.0247,0.02,0.02,0.02,0.02,0.02,0.02,0,0,0.048,0.0474,0.0473,0.0465,0.0448,0.0434,0.0433,0.0409,0.0402,0.039,0.0363,0.0341,0.0308,0.0285,0.0269,0.0271,0.0238,0.0265,0.0298,0.0254,0.0254,0.0253,0.022,0.0217,0.0269,0.0269,0.0269,0,0.0494,0.0489,0.047,0.0467,0.0464,0.0443,0.0447,0.0435,0.0409,0.0404,0.0396,0.0346,0.0317,0.0296,0.0301,0.028,0.0253,0.029,0.0259,0.0258,0.0256,0.0223,0.0218,0.0271,0.0271,0.0271,0.027,0,0.0504,0.0501,0.05,0.0496,0.0491,0.0492,0.0476,0.0473,0.0464,0.0447,0.0427,0.0389,0.0359,0.0346,0.0328,0.0306,0.0291,0.0267,0.0253,0.026,0.0224,0.0218,0.0275,0.0274,0.0273,0.0273,0,0,0.053,0.0513,0.0515,0.052,0.0511,0.051,0.0513,0.0503,0.0507,0.0482,0.0479,0.0439,0.0418,0.0398,0.0367,0.0336,0.0304,0.0308,0.0304,0.0283,0.0215,0.02,0.0192,0.0276,0.0275,0.0274,0.0195,0,0.0546,0.055,0.0539,0.0555,0.0553,0.0548,0.0554,0.0548,0.0535,0.0525,0.0486,0.0469,0.0437,0.043,0.0392,0.0324,0.029,0.0328,0.0205,0.0202,0.0194,0.0185,0.0272,0.0191,0.0189,0.0188,0.0188,0,0.0556,0.0554,0.0571,0.0581,0.0585,0.0598,0.0613,0.0618,0.0597,0.0586,0.056,0.0526,0.0482,0.0454,0.0345,0.0372,0.0303,0.025,0.0244,0.021,0.0176,0.018,0.0176,0.0177,0.0178,0.0179,0.0179,0,0.0571,0.0579,0.0597,0.0602,0.0608,0.0627,0.0642,0.0637,0.0652,0.0628,0.063,0.0563,0.0537,0.0444,0.0337,0.0339,0.0214,0.0194,0.0115,0.0113,0.0128,0.0129,0.0114,0.0114,0.0114,0.0114,0.0115,0,0.0577,0.0594,0.061,0.0616,0.0655,0.0658,0.07,0.0698,0.0707,0.0724,0.0668,0.0657,0.0534,0.045,0.0347,0.0214,0.0213,0.0121,0.0089,0.0152,0.0156,0.0123,0.0125,0.0111,0.0112,0.0113,0.0113,0,0.0579,0.0589,0.0614,0.064,0.0656,0.069,0.075,0.0775,0.0778,0.0798,0.0797,0.0723,0.061,0.0481,0.0321,0.023,0.0103,0.0054,0.0141,0.0115,0.003,0.0036,-0.0041,-0.0042,-0.0043,-0.0044,-0.0045,0,0.0577,0.0586,0.0637,0.0665,0.0681,0.0736,0.0773,0.0805,0.0833,0.0835,0.084,0.0751,0.0683,0.0452,0.0306,0.0103,0.0072,0.0004,0.0012,0.0037,0.0013,0.0021,0.0027,-0.0046,-0.0046,-0.0047,-0.0047,0,0.0569,0.0598,0.062,0.0679,0.0729,0.0787,0.0844,0.0872,0.0906,0.0911,0.0871,0.0759,0.0628,0.0449,0.0289,0.0143,0.0047,-0.0007,-0.0006,0.0,0.0029,0.0008,0.0016,-0.0051,-0.005,-0.005,-0.005,0,0.0574,0.0594,0.0634,0.0687,0.0756,0.0815,0.0851,0.0884,0.0916,0.092,0.0901,0.0769,0.0693,0.0469,0.0322,0.0176,0.0136,0.0086,0.0081,0.0084,0.014,0.0196,0.0141,0,0,0,0,0,0.0565,0.0583,0.0636,0.0694,0.0768,0.0811,0.0883,0.0915,0.0952,0.0928,0.092,0.08,0.0583,0.0487,0.0338,0.0291,0.0104,0.0109,0.0042,-0.0071,-0.0066,-0.0023,0,0,0,0,0,0,0.0551,0.0597,0.0623,0.0697,0.0741,0.0822,0.0875,0.0902,0.0893,0.0904,0.0791,0.0749,0.0537,0.0664,0.0328,0.0285,0.0219,0.0013,0.001,-0.0073,-0.0069,-0.0066,-0.002,0,0,0,0,0]}]]